Location: Newark
(52.3500°N, 175.9667°E)
Time: 21:37:53
(UTC+00:00)

Transit 4A - Pass Details

Date: 26 April 2021
Orbit: 871 x 974 km, 66.8° (Epoch: 16 May)

Event Time Altitude Azimuth Distance (km) Brightness Sun altitude
Rises 19:18:21 0° 318° (NW) 3,518 10.5 20.7°
Reaches altitude 10° 19:20:59 10° 312° (NW) 2,561 9.8 21.1°
Maximum altitude 19:26:30 43° 243° (WSW) 1,217 8.4 21.9°
Drops below altitude 10° 19:31:56 10° 174° (S) 2,514 10.4 22.8°
Sets 19:34:30 0° 168° (SSE) 3,446 11.1 23.1°
